Location: Gazoldo
(45.2000°N, 10.5833°E)
Time: 22:51:52
(UTC+00:00)

Daily predictions for brighter satellites

Satellite Brightness Start Highest point End
(mag) Time Altitude Azimuth Time Altitude Azimuth Time Altitude Azimuth
Cosmos 2123 Rocket 4.3 16:36:37 10° N 16:42:40 45° ENE 16:48:38 10° SSE
CZ-4B DEB 4.2 16:38:19 10° SSE 16:43:50 76° ENE 16:49:25 10° NNW
USA 215 3.4 16:38:53 10° NE 16:45:28 86° NW 16:52:00 10° SW
Cosmos 1980 Rocket 3.0 16:39:56 10° SW 16:45:29 55° WNW 16:51:06 10° NNE
NOSS 8 (F) 4.3 16:44:09 10° SSW 16:47:40 67° SE 16:50:38 10° NE
USA 229 DEB 4.3 16:42:35 10° S 16:48:07 33° ESE 16:53:57 10° NE
USA 229 4.3 16:42:44 10° S 16:48:14 32° ESE 16:54:02 10° NE
CZ-2C R/B 3.5 16:43:32 10° NNE 16:48:24 30° E 16:53:10 10° SSE
OE (NEXTSAT) 4.4 16:48:30 10° WSW 16:51:55 69° SSE 16:55:18 10° E
Cosmos 1939 Rocket 3.2 16:48:24 10° S 16:52:20 72° WSW 16:56:22 10° NNW
Cosmos 2227 4.3 16:49:07 10° NNW 16:54:55 89° ENE 17:00:40 10° SSE
H-2A R/B 3.8 16:53:20 10° ESE 16:56:28 21° ENE 16:59:32 10° NNE
PSLV R/B 3.9 16:54:18 10° SSE 16:58:18 88° WSW 17:02:15 10° NNW
Cosmos 1892 4.2 16:57:15 10° NNE 16:59:48 17° ENE 17:02:20 10° ESE
PAYLOAD B 4.2 16:56:06 10° SSE 17:01:37 83° ENE 17:07:14 10° NNW
ATLAS 3B R/B 4.2 16:56:46 10° W 17:02:30 30° NNW 17:08:29 10° NNE
SMAP 3.9 17:00:16 10° S 17:04:50 56° W 17:09:26 10° NNW
Cosmos 1626 Rocket 3.9 17:01:13 10° N 17:05:20 42° ENE 17:09:26 10° SSE
Cosmos 1408 4.0 17:04:43 10° NNE 17:07:11 17° ENE 17:09:17 11° ESE
CZ-2D R/B 3.2 17:06:08 10° SSE 17:09:59 87° ENE 17:13:53 10° NNW
H-2A R/B 2.1 17:05:03 10° SSE 17:10:26 73° ENE 17:15:54 10° N
NOSS 3-1 (A) 3.5 17:05:36 10° S 17:10:30 43° ESE 17:16:10 10° NE
Meteor 2-10 Rocket 4.1 17:05:54 10° SSE 17:10:56 37° E 17:15:48 10° NNE
Cosmos 1844 Rocket 3.2 17:06:32 10° NNW 17:11:43 37° NE 17:16:50 10° ESE
SL-08 RB Rocket 4.5 17:08:12 10° SE 17:12:12 31° ENE 17:16:16 10° N
Cosmos 371 Rocket 3.3 17:07:41 10° SSW 17:12:33 89° ESE 17:17:29 10° NNE
X-37B 1.5 17:11:03 10° W 17:14:31 53° SSW 17:17:40 12° ESE
SJ-11-01 4.4 17:12:57 10° SSE 17:17:29 52° ENE 17:22:04 10° N
Cosmos 1328 3.9 17:13:39 10° N 17:17:43 81° W 17:21:45 10° S
Cosmos 2237 4.4 17:13:29 10° S 17:18:58 50° ESE 17:24:30 10° NE
USA 267 3.3 17:12:53 10° SE 17:19:26 87° SW 17:26:01 10° NW
EXPRESS MD2 4.1 17:23:27 10° S 17:24:31 14° SSE 17:24:31 14° SSE
Tiangong 2.1 17:23:09 10° WSW 17:26:11 39° S 17:28:03 19° SE
MOS 1-B Rocket 4.0 17:20:05 10° NNE 17:26:29 61° E 17:32:08 10° S
SKYMED 2 3.5 17:22:10 10° NNE 17:26:31 73° ESE 17:30:51 10° S
YAOGAN 3 4.5 17:23:39 10° SSE 17:27:59 72° ENE 17:32:21 10° N
Cosmos 1455 Rocket 4.2 17:24:10 10° SSW 17:28:27 47° WNW 17:32:46 10° N
Cosmos 1605 Rocket 4.0 17:22:59 10° S 17:29:07 61° E 17:35:24 10° NNE
YAOGAN 1 3.1 17:25:31 10° SE 17:29:29 36° ENE 17:33:27 10° N
BREEZE-M R/B 2.6 17:26:32 10° WNW 17:30:02 64° NNE 17:32:42 21° E
NOSS 2-3 (D) 3.5 17:26:27 10° SW 17:30:28 81° NW 17:35:09 10° NE
H-2A R/B 3.1 17:30:42 22° E 17:30:57 22° E 17:34:17 10° SSE
Landsat 5 3.5 17:26:50 10° NNE 17:31:17 74° ESE 17:35:47 10° S
GENESIS II 4.4 17:29:55 10° NNW 17:33:45 51° NE 17:35:57 23° ESE
Cosmos 1455 4.1 17:30:55 10° SE 17:31:47 14° SE 17:31:47 14° SE
NOSS 3-1 (C) 3.4 17:28:52 10° SW 17:34:08 75° NW 17:40:23 10° NE
ATLAS 5 CENTAUR R/B 3.6 17:32:17 10° W 17:35:23 21° NNW 17:38:48 10° NNE
Cosmos 44 3.5 17:30:54 10° SSW 17:36:14 62° ESE 17:40:54 13° NE
COSMOS 2428 4.4 17:33:20 10° SE 17:34:44 14° ESE 17:34:44 14° ESE
Cosmos 2278 Rocket 4.0 17:35:08 10° N 17:37:59 14° NE 17:38:38 14° NE
Lacrosse 4 Rocket 1.6 17:34:09 10° NNW 17:38:30 81° WSW 17:42:54 10° SSE
Cosmos 1140 Rocket 4.2 17:34:46 10° N 17:39:23 31° ENE 17:41:12 25° E
FALCON 9 DEB 4.4 17:37:05 10° S 17:39:54 24° SE 17:39:57 24° SE
Cosmos 407 Rocket 4.2 17:36:26 10° N 17:41:19 34° ENE 17:43:30 25° ESE
Cosmos 1300 3.5 17:38:08 10° SSW 17:41:51 52° WNW 17:45:35 10° N
Cosmos 1825 3.6 17:39:41 10° NNE 17:41:33 21° NE 17:41:33 21° NE
Cosmos 1544 Rocket 4.2 17:38:35 10° SSW 17:42:58 58° W 17:47:24 10° N
NOSS 2-3 (C) 4.0 17:39:04 10° SW 17:43:03 60° NW 17:47:34 11° NNE
SL-16 R/B 2.6 17:39:18 10° SW 17:44:55 65° WNW 17:50:35 10° NNE
Cosmos 2251 Rocket 3.4 17:39:40 10° NNW 17:44:55 72° ENE 17:50:08 10° SSE
SWARM C 4.3 17:42:58 10° S 17:46:14 75° E 17:49:33 10° N
SWARM A 4.0 17:43:10 10° S 17:46:27 75° E 17:49:46 10° N
Cosmos 2322 Rocket 2.5 17:50:47 10° SW 17:56:21 69° WNW 18:02:00 10° NNE
CZ-4C R/B 3.4 17:56:06 10° N 17:59:24 58° WNW 18:02:35 10° SSW
Okean O Rocket 2.7 17:57:22 10° S 18:01:31 45° W 18:05:45 10° NNW
Cosmos 2219 Rocket 2.7 17:56:40 10° SSE 18:01:22 33° ESE 18:01:22 33° ESE
IRAS Rocket 4.1 17:56:54 10° NNE 18:02:29 77° ESE 18:07:58 10° SSW
Cosmos 304 Rocket 4.4 17:57:52 10° SW 18:02:33 55° WNW 18:07:18 10° NNE
Cosmos 614 Rocket 4.1 17:59:09 10° NNW 18:04:14 74° WSW 18:09:19 10° SSE
Cosmos 2360 Rocket 2.1 17:59:35 10° SSW 18:05:15 87° ESE 18:10:57 10° NNE
CZ-4 R/B 1.3 18:01:32 10° SSE 18:05:34 87° ENE 18:09:43 10° NNW
Meteor 1-4 Rocket 3.6 18:02:52 10° SSW 18:06:11 44° WNW 18:09:31 10° N
Cosmos 1844 3.6 18:01:34 10° NNW 18:07:24 80° ENE 18:11:17 21° SSE
MetOp-A 4.2 18:05:20 31° SE 18:07:37 52° ENE 18:12:49 10° N
ARGOS 3.7 18:02:58 10° S 18:08:17 59° W 18:13:39 10° NNW
Cosmos 1602 Rocket 4.1 18:04:30 10° NNW 18:08:47 58° W 18:13:00 10° S
FALCON 9 DEB 4.0 18:06:14 10° SW 18:08:09 35° SSW 18:08:09 35° SSW
Cosmos 1932 4.4 18:03:31 10° NW 18:09:47 88° ENE 18:13:52 23° SE
COSMO-SKYMED 1 4.2 18:10:31 10° N 18:14:30 36° WNW 18:18:27 10° SW
Cosmos 2333 Rocket 2.2 18:10:15 10° S 18:15:44 54° ESE 18:17:13 42° ENE
Meteor 2-11 Rocket 4.3 18:09:48 10° S 18:15:54 69° E 18:22:01 10° NNE
IRS-1C Rocket 4.0 18:19:34 17° SSE 18:23:40 88° ENE 18:28:59 10° NNW
SL-8 R/B 3.8 18:20:14 10° WNW 18:24:59 59° N 18:25:25 56° NNE
Cosmos 1190 Rocket 4.0 18:21:17 10° NNW 18:26:12 56° NE 18:26:12 56° NE
Okean-O 2.4 18:26:33 80° E 18:26:35 80° ENE 18:31:02 10° N
USA 215 4.2 18:24:03 20° NE 18:28:03 40° NNW 18:34:02 10° W
CZ-2C R/B 3.9 18:23:34 10° N 18:28:47 42° WNW 18:33:54 10° SW
CSL-04 Debris 4.0 18:28:30 50° SE 18:29:53 74° ENE 18:35:18 10° N
Cosmos 1825 Rocket 3.5 18:26:46 10° N 18:31:07 82° W 18:31:17 79° SW
H-2A R/B 3.8 18:27:40 10° S 18:31:41 40° W 18:35:35 10° NNW
Cosmos 1892 4.3 18:32:09 10° NNW 18:35:34 34° W 18:38:59 10° SSW
Cosmos 2228 3.5 18:31:47 10° SSW 18:36:07 61° W 18:40:29 10° N
Cosmos 2322 3.5 18:32:01 10° SSW 18:37:42 72° ESE 18:38:00 70° E
USA 229 DEB 4.1 18:32:23 10° WSW 18:38:41 57° NW 18:43:37 19° NNE
USA 229 4.1 18:32:29 10° SW 18:38:47 57° NW 18:43:41 19° NNE
CSL-04 Rocket 3.6 18:39:01 63° SE 18:39:56 81° ENE 18:45:32 10° NNW
Cosmos 1408 4.4 18:39:01 10° NNW 18:42:12 30° W 18:43:38 22° SW
Cosmos 1459 Rocket 3.8 18:40:31 10° S 18:46:42 85° E 18:52:52 10° N
X-37B 3.7 18:49:48 10° WSW 18:51:10 14° SW 18:51:10 14° SW
Cosmos 2100 Rocket 4.0 18:46:15 10° S 18:52:34 81° W 18:58:58 10° N
Cosmos 1844 Rocket 4.0 18:50:31 10° NW 18:55:34 36° WSW 18:59:39 15° SSW
NOSS 3-1 (A) 4.5 18:56:19 10° WSW 19:01:25 38° NW 19:04:32 24° NNE
Cosmos 2173 Rocket 4.1 18:56:55 10° SSW 19:03:05 72° W 19:09:25 10° N
Cosmos 1802 Rocket 4.4 18:58:11 10° S 19:05:58 52° N 19:10:30 10° N
H-2A R/B 3.7 19:07:50 31° W 19:07:50 31° W 19:10:46 10° SW
CENTAUR R/B 3.8 19:05:59 10° NNW 19:12:59 38° NNE 19:12:59 38° NNE
COSMOS 2428 4.3 19:14:41 10° SSW 19:16:52 24° SW 19:16:52 24° SW
Cosmos 2278 Rocket 3.6 19:17:37 10° NNW 19:20:29 30° N 19:20:29 30° N
Cosmos 2219 Rocket 3.9 19:40:14 10° SW 19:43:11 28° WSW 19:43:11 28° WSW
Cosmos 2333 Rocket 4.1 19:55:30 10° WSW 19:59:19 27° WNW 19:59:19 27° WNW
